{"data":{"norad_id":43055,"epoch":"2026-05-25T03:20:00.136608Z","epoch_age_seconds":66232,"freshness":"FRESH","line1":"1 43055U 17079A   26145.13889047 -.00000009  00000+0  00000+0 0  9997","line2":"2 43055  55.0795 222.1411 0003324 263.2184  96.7978  1.70474628 52597","mean_motion":1.70474628,"eccentricity":0.0003324,"inclination_deg":55.0795,"raan_deg":222.1411,"arg_perigee_deg":263.2184,"mean_anomaly_deg":96.7978,"bstar":0,"rev_number":5259,"period_min":844.7004794168,"perigee_km":23212.271240214,"apogee_km":23231.94948466,"semimajor_km":29600.247362437,"source":"CELESTRAK","updated_at":"2026-05-25T13:38:24.059464Z"}}